DW2447 Weather Reports


time (UTC)temp
C
wind
direction
speed
KPH
gust
KPH
rain 1hr
cm
rain 24hr
cm
rain mn
cm
humidity
%
barometer
mb
20260906105214 22 91 0.0 0.0 0.00 0.00 0.00 98 1011.5
20260906104713 22 91 0.0 0.0 0.00 0.00 0.00 98 1011.5
20260906104212 22 91 0.0 0.0 0.00 0.00 0.00 98 1011.5
20260906103710 22 91 0.0 0.0 0.00 0.00 0.00 98 1011.7
20260906103205 22 91 0.0 0.0 0.00 0.00 0.00 97 1011.5
20260906102701 22 92 0.0 0.0 0.00 0.00 0.00 97 1011.6
20260906102159 22 85 0.0 0.0 0.00 0.00 0.00 97 1011.6
20260906101654 22 85 0.0 0.0 0.00 0.00 0.00 97 1011.5
20260906101149 22 85 0.0 0.0 0.00 0.00 0.00 97 1011.2
20260906100644 22 84 0.0 0.0 0.00 0.00 0.00 97 1011.3
20260906100139 22 85 0.0 0.0 0.00 0.00 0.00 97 1011.1
20260906095634 22 85 0.0 0.0 0.00 0.00 0.00 97 1011.1
20260906095129 22 85 0.0 0.0 0.00 0.00 0.00 97 1011.1
20260906094628 22 85 0.0 0.0 0.00 0.00 0.00 97 1011.3
20260906094124 22 86 0.0 0.0 0.00 0.00 0.00 97 1011.0
20260906093621 22 84 0.0 0.0 0.00 0.00 0.00 97 1010.8
20260906093120 22 84 0.0 0.0 0.00 0.00 0.00 97 1010.7
20260906092615 22 84 0.0 0.0 0.00 0.00 0.00 97 1010.8
20260906092110 22 84 0.0 0.0 0.00 0.00 0.00 96 1010.7
20260906091606 22 84 0.0 0.0 0.00 0.00 0.00 97 1010.6
20260906091103 22 85 0.0 0.0 0.00 0.00 0.00 97 1010.8
20260906090603 22 82 0.0 0.0 0.00 0.00 0.00 97 1010.6
20260906085602 22 81 0.0 0.0 0.00 0.00 0.00 97 1010.7
20260906085056 22 82 0.0 0.0 0.00 0.00 0.00 97 1010.7
20260906084551 22 83 0.0 0.0 0.00 0.00 0.00 97 1010.8
20260906084050 22 83 0.0 0.0 0.00 0.00 0.00 97 1010.5
20260906083546 22 83 0.0 0.0 0.00 0.00 0.00 97 1010.9
20260906083045 22 83 0.0 0.0 0.00 0.00 0.00 96 1010.8
20260906082540 22 83 0.0 0.0 0.00 0.00 0.00 96 1010.9
20260906082036 22 83 0.0 0.0 0.00 0.00 0.00 96 1011.0
20260906081532 22 83 0.0 0.0 0.00 0.00 0.00 96 1010.9
20260906081027 22 83 0.0 0.0 0.00 0.00 0.00 96 1011.0
20260906080524 22 83 0.0 0.0 0.00 0.00 0.00 96 1010.9
20260906080019 22 83 0.0 0.0 0.00 0.00 0.00 96 1011.3
20260906075513 22 83 0.0 0.0 0.00 0.00 0.00 96 1011.2
20260906075008 22 83 0.0 0.0 0.00 0.00 0.00 96 1010.9
20260906074503 22 84 0.0 0.0 0.00 0.00 0.00 96 1011.0
20260906074001 22 81 0.0 0.0 0.00 0.00 0.00 96 1011.2
20260906073456 22 80 0.0 0.0 0.00 0.00 0.00 96 1011.2
20260906072953 22 80 0.0 0.0 0.00 0.00 0.00 95 1011.2
20260906072448 22 80 0.0 0.0 0.00 0.00 0.00 95 1011.1
20260906071943 22 81 0.0 0.0 0.00 0.00 0.00 95 1011.2
20260906071439 22 81 0.0 0.0 0.00 0.00 0.00 94 1011.4
20260906070935 22 81 0.0 0.0 0.00 0.00 0.00 94 1011.3
20260906070431 22 81 0.0 0.0 0.00 0.00 0.00 94 1011.5
20260906065926 23 81 0.0 0.0 0.00 0.00 0.00 94 1011.5
20260906065421 23 80 0.0 0.0 0.00 0.00 0.00 94 1011.4
20260906064916 23 80 0.0 0.0 0.00 0.00 0.00 94 1011.4
20260906064412 23 81 0.0 0.0 0.00 0.00 0.00 93 1011.6
20260906063907 23 81 0.0 0.0 0.00 0.00 0.00 93 1011.7
20260906063402 23 81 0.0 0.0 0.00 0.00 0.00 93 1011.6
20260906062857 23 81 0.0 0.0 0.00 0.00 0.00 93 1011.7
20260906062356 23 81 0.0 0.0 0.00 0.00 0.00 92 1011.9
20260906061852 23 81 0.0 0.0 0.00 0.00 0.00 92 1011.8
20260906061348 23 81 0.0 0.0 0.00 0.00 0.00 92 1011.7
20260906060843 23 81 0.0 0.0 0.00 0.00 0.00 91 1011.5
20260906060340 23 81 0.0 0.0 0.00 0.00 0.00 91 1011.6
20260906055836 23 81 0.0 0.0 0.00 0.00 0.00 91 1011.7
20260906055331 23 81 0.0 0.0 0.00 0.00 0.00 90 1011.4
20260906054827 23 81 0.0 0.0 0.00 0.00 0.00 90 1011.5
20260906054321 23 81 0.0 0.0 0.00 0.00 0.00 90 1011.5
20260906053818 23 81 0.0 0.0 0.00 0.00 0.00 89 1011.6
20260906053313 23 81 0.0 0.0 0.00 0.00 0.00 89 1011.7
20260906052808 23 81 0.0 0.0 0.00 0.00 0.00 89 1011.6
20260906052306 23 81 0.0 0.0 0.00 0.00 0.00 88 1011.8
20260906051802 23 81 0.0 0.0 0.00 0.00 0.00 88 1011.6
20260906051301 24 72 0.0 0.0 0.00 0.00 0.00 89 1011.8
20260906050756 23 85 0.0 1.6 0.00 0.00 0.00 89 1011.9
20260906050252 23 79 0.0 0.0 0.00 0.00 0.00 89 1011.9
20260906045750 24 80 0.0 0.0 0.00 0.00 0.00 89 1012.2
20260906045245 24 80 0.0 0.0 0.00 0.00 0.00 88 1012.1
20260906044741 24 80 0.0 0.0 0.00 0.00 0.00 88 1012.2
20260906044236 24 76 0.0 0.0 0.00 0.00 0.00 89 1012.1
20260906043732 24 76 0.0 0.0 0.00 0.00 0.00 89 1012.3
20260906043228 24 76 0.0 0.0 0.00 0.00 0.00 89 1012.4
20260906042727 24 82 0.0 0.0 0.00 0.00 0.00 89 1012.2
20260906042226 24 76 0.0 0.0 0.00 0.00 0.00 89 1012.3
20260906041722 24 76 0.0 0.0 0.00 0.00 0.00 89 1012.3
20260906041217 25 75 0.0 0.0 0.00 0.00 0.00 89 1012.3
20260906040713 25 75 0.0 0.0 0.00 0.00 0.00 88 1012.3
20260906040208 25 80 0.0 0.0 0.00 0.00 0.00 89 1012.2
20260906035704 25 70 0.0 1.6 0.00 0.00 0.00 89 1012.5
20260906035159 25 69 1.6 1.6 0.00 0.00 0.00 90 1012.4
20260906034659 25 74 0.0 1.6 0.00 0.00 0.00 90 1012.3
20260906034154 25 72 1.6 1.6 0.00 0.00 0.00 91 1012.3
20260906033649 25 75 0.0 0.0 0.00 0.00 0.00 91 1012.3
20260906033143 25 78 0.0 0.0 0.00 0.00 0.00 91 1012.3
20260906032640 25 81 0.0 0.0 0.00 0.00 0.00 92 1012.4
20260906032140 25 72 0.0 0.0 0.00 0.00 0.00 92 1012.5
20260906031636 25 73 0.0 0.0 0.00 0.00 0.00 92 1012.3
20260906031131 25 73 0.0 0.0 0.00 0.00 0.00 91 1012.4
20260906030630 25 72 0.0 0.0 0.00 0.00 0.00 91 1012.3
20260906030126 25 80 0.0 0.0 0.00 0.00 0.00 90 1012.3
20260906025625 25 75 1.6 1.6 0.00 0.00 0.00 90 1012.2
20260906025124 25 76 1.6 1.6 0.00 0.00 0.00 89 1012.3
20260906024619 25 77 0.0 0.0 0.00 0.00 0.00 88 1012.2
20260906024113 25 72 1.6 1.6 0.00 0.00 0.00 88 1012.2
20260906023610 25 74 0.0 0.0 0.00 0.00 0.00 87 1012.0
20260906023109 25 79 0.0 0.0 0.00 0.00 0.00 87 1011.9
20260906022605 25 78 0.0 0.0 0.00 0.00 0.00 86 1011.7
20260906022100 26 70 1.6 1.6 0.00 0.00 0.00 86 1011.6
20260906021556 26 89 0.0 1.6 0.00 0.00 0.00 85 1011.3
20260906021055 26 91 0.0 0.0 0.00 0.00 0.00 85 1011.6
20260906020554 26 55 1.6 3.2 0.00 0.00 0.00 85 1011.5
20260906020054 26 86 0.0 0.0 0.00 0.00 0.00 84 1011.2
20260906015548 26 110 1.6 1.6 0.00 0.00 0.00 83 1011.4
20260906015048 26 115 3.2 3.2 0.00 0.00 0.00 83 1011.4
20260906014542 26 82 0.0 0.0 0.00 0.00 0.00 83 1011.5
20260906014038 26 59 3.2 3.2 0.00 0.00 0.00 84 1011.5
20260906013533 26 40 4.8 4.8 0.00 0.00 0.00 84 1010.9
20260906013029 26 90 0.0 0.0 0.00 0.00 0.00 82 1009.6
20260906012524 26 95 0.0 0.0 0.00 0.00 0.00 82 1009.3
20260906012023 25 90 0.0 0.0 0.00 0.00 0.00 83 1009.4
20260906011520 26 134 1.6 3.2 0.00 0.00 0.00 83 1010.0
20260906011019 26 107 1.6 1.6 0.00 0.00 0.00 82 1010.1
20260906010514 26 88 0.0 0.0 0.00 0.00 0.00 82 1010.5
20260906010011 26 88 0.0 0.0 0.00 0.00 0.00 81 1010.9
20260906005510 26 88 0.0 0.0 0.00 0.00 0.00 82 1011.1
20260906005009 26 108 1.6 1.6 0.00 0.00 0.00 81 1011.4
20260906004503 26 83 0.0 0.0 0.00 0.00 0.00 78 1011.6
20260906003958 27 73 0.0 1.6 0.00 0.00 0.00 77 1012.0
20260906003453 27 81 0.0 0.0 0.00 0.00 0.00 74 1012.1
20260906002948 29 60 1.6 1.6 0.00 0.00 0.00 69 1012.5
20260906002443 30 28 4.8 8.0 0.00 0.00 0.00 69 1012.3
20260906001938 30 45 3.2 4.8 0.00 0.00 0.00 77 1012.0
20260906001434 30 80 3.2 3.2 0.00 0.00 0.00 83 1012.0
20260906000929 30 73 1.6 1.6 0.00 0.00 0.00 85 1012.1
20260906000425 30 69 1.6 1.6 0.00 0.00 0.00 86 1012.1
20260905235919 30 91 0.0 0.0 0.00 0.00 0.00 84 1011.5
20260905235418 30 103 0.0 0.0 0.00 0.00 0.00 84 1011.7
20260905234914 30 90 0.0 0.0 0.00 0.00 0.00 83 1012.0
20260905234409 30 90 0.0 0.0 0.00 0.00 0.00 83 1011.8
20260905233904 30 97 0.0 1.6 0.00 0.00 0.00 82 1011.5
20260905233359 31 94 0.0 0.0 0.00 0.00 0.00 81 1011.6
20260905232858 31 120 1.6 3.2 0.00 0.00 0.00 81 1011.5
20260905232354 31 86 0.0 0.0 0.00 0.00 0.00 80 1011.9
20260905231849 31 92 0.0 0.0 0.00 0.00 0.00 80 1011.6
20260905231344 31 92 0.0 0.0 0.00 0.00 0.00 80 1011.6
20260905230841 31 87 0.0 0.0 0.00 0.00 0.00 80 1011.6
20260905230339 31 78 0.0 0.0 0.00 0.00 0.00 79 1011.7
20260905225838 31 93 0.0 0.0 0.00 0.00 0.00 79 1011.5
20260905225334 31 102 1.6 1.6 0.00 0.00 0.00 78 1011.3
20260905224828 32 88 0.0 0.0 0.00 0.00 0.00 77 1011.3
20260905224324 32 79 1.6 1.6 0.00 0.00 0.00 77 1011.1
20260905223818 32 106 1.6 1.6 0.00 0.00 0.00 77 1011.0
20260905223316 32 90 0.0 1.6 0.00 0.00 0.00 77 1011.2
20260905222811 32 116 1.6 1.6 0.00 0.00 0.00 76 1011.2
20260905222309 32 113 1.6 1.6 0.00 0.00 0.00 75 1011.0
20260905221806 33 136 1.6 3.2 0.00 0.00 0.00 70 1010.8
20260905221302 33 220 4.8 8.0 0.00 0.00 0.00 62 1011.1
20260905220758 33 102 0.0 1.6 0.00 0.00 0.00 62 1010.7
20260905220254 33 99 1.6 1.6 0.00 0.00 0.00 62 1010.7
20260905215753 33 159 4.8 4.8 0.00 0.00 0.00 60 1010.6
20260905215249 34 89 0.0 0.0 0.00 0.00 0.00 62 1011.0
20260905214744 34 86 0.0 0.0 0.00 0.00 0.00 62 1010.8
20260905214240 34 95 0.0 0.0 0.00 0.00 0.00 61 1010.9
20260905213735 34 103 0.0 0.0 0.00 0.00 0.00 61 1010.7
20260905213231 34 281 3.2 4.8 0.00 0.00 0.00 59 1010.8
20260905212727 34 79 0.0 0.0 0.00 0.00 0.00 61 1010.6
20260905212226 34 80 0.0 0.0 0.00 0.00 0.00 60 1010.7
20260905211725 33 98 0.0 0.0 0.00 0.00 0.00 59 1010.7
20260905211221 34 72 1.6 1.6 0.00 0.00 0.00 59 1010.8
20260905210718 34 83 0.0 0.0 0.00 0.00 0.00 58 1010.4
20260905210217 34 82 0.0 0.0 0.00 0.00 0.00 62 1010.7
20260905205716 33 77 1.6 1.6 0.00 0.00 0.00 62 1010.6
20260905205211 33 72 0.0 1.6 0.00 0.00 0.00 61 1010.5
20260905204711 33 86 0.0 0.0 0.00 0.00 0.00 62 1010.4
20260905204206 34 65 1.6 1.6 0.00 0.00 0.00 63 1010.3
20260905203700 33 66 1.6 1.6 0.00 0.00 0.00 60 1010.5
20260905203156 34 53 4.8 4.8 0.00 0.00 0.00 60 1010.4
20260905202651 34 92 0.0 1.6 0.00 0.00 0.00 60 1010.2
20260905202146 34 77 1.6 1.6 0.00 0.00 0.00 61 1010.5
20260905201642 34 74 1.6 1.6 0.00 0.00 0.00 61 1010.5
20260905201141 35 75 0.0 0.0 0.00 0.00 0.00 61 1010.6
20260905200637 35 79 0.0 0.0 0.00 0.00 0.00 58 1010.4
20260905200132 35 92 0.0 0.0 0.00 0.00 0.00 57 1010.8
20260905195630 35 91 0.0 1.6 0.00 0.00 0.00 60 1010.6
20260905195126 35 71 1.6 1.6 0.00 0.00 0.00 60 1010.8
20260905194621 35 64 1.6 1.6 0.00 0.00 0.00 60 1010.7
20260905194120 35 72 1.6 1.6 0.00 0.00 0.00 58 1011.0
20260905193615 35 178 3.2 3.2 0.00 0.00 0.00 59 1010.8
20260905193110 35 71 1.6 3.2 0.00 0.00 0.00 59 1011.1
20260905192606 35 59 1.6 1.6 0.00 0.00 0.00 60 1011.1
20260905192102 35 53 3.2 3.2 0.00 0.00 0.00 60 1011.0
20260905191600 35 84 0.0 1.6 0.00 0.00 0.00 61 1011.1
20260905191059 33 92 0.0 0.0 0.00 0.00 0.00 61 1011.2
20260905190557 35 61 1.6 3.2 0.00 0.00 0.00 61 1011.6
20260905190056 35 32 4.8 4.8 0.00 0.00 0.00 61 1011.6
20260905185555 35 111 1.6 3.2 0.00 0.00 0.00 60 1011.6
20260905185050 34 100 1.6 1.6 0.00 0.00 0.00 62 1012.0
20260905184545 34 92 0.0 0.0 0.00 0.00 0.00 60 1011.8
20260905184044 34 79 3.2 3.2 0.00 0.00 0.00 63 1011.9
20260905183543 33 78 0.0 0.0 0.00 0.00 0.00 63 1012.3
20260905183039 33 66 1.6 1.6 0.00 0.00 0.00 64 1012.4
20260905182538 33 77 1.6 1.6 0.00 0.00 0.00 67 1012.2
20260905182033 33 92 0.0 0.0 0.00 0.00 0.00 67 1012.4
20260905181527 33 55 6.4 8.0 0.00 0.00 0.00 64 1012.4
20260905181027 34 98 0.0 1.6 0.00 0.00 0.00 63 1012.4
20260905180522 34 95 1.6 1.6 0.00 0.00 0.00 64 1012.6
20260905180017 34 46 4.8 4.8 0.00 0.00 0.00 64 1012.5
20260905175516 34 147 3.2 3.2 0.00 0.00 0.00 63 1012.8
20260905175012 34 101 0.0 1.6 0.00 0.00 0.00 63 1012.6
20260905174507 34 86 0.0 0.0 0.00 0.00 0.00 63 1012.6
20260905174003 34 110 4.8 4.8 0.00 0.00 0.00 63 1012.8
20260905173459 33 72 1.6 3.2 0.00 0.00 0.00 68 1012.8
20260905172954 33 77 1.6 3.2 0.00 0.00 0.00 69 1013.0
20260905172452 33 96 0.0 1.6 0.00 0.00 0.00 70 1012.8
20260905171948 33 46 1.6 1.6 0.00 0.00 0.00 68 1013.0
20260905171444 33 103 3.2 3.2 0.00 0.00 0.00 69 1013.2
20260905170940 33 209 6.4 8.0 0.00 0.00 0.00 68 1013.3
20260905170436 33 132 3.2 4.8 0.00 0.00 0.00 68 1013.4
20260905165936 34 97 0.0 1.6 0.00 0.00 0.00 66 1013.3
20260905165431 33 104 1.6 1.6 0.00 0.00 0.00 69 1013.3
20260905164926 33 93 3.2 3.2 0.00 0.00 0.00 70 1013.5
20260905164420 32 138 1.6 3.2 0.00 0.00 0.00 70 1013.7
20260905163915 33 156 0.0 3.2 0.00 0.00 0.00 70 1013.7
20260905163412 33 95 0.0 0.0 0.00 0.00 0.00 70 1013.8
20260905162908 32 91 0.0 1.6 0.00 0.00 0.00 69 1013.9
20260905162403 32 109 1.6 1.6 0.00 0.00 0.00 71 1014.2
20260905161857 32 172 4.8 8.0 0.00 0.00 0.00 71 1014.2
20260905161356 32 104 0.0 1.6 0.00 0.00 0.00 76 1014.0
20260905160854 32 67 1.6 1.6 0.00 0.00 0.00 74 1014.2
20260905160349 31 37 4.8 8.0 0.00 0.00 0.00 74 1014.1
20260905155843 30 171 3.2 3.2 0.00 0.00 0.00 77 1014.3
20260905155343 30 27 3.2 4.8 0.00 0.00 0.00 77 1014.6
20260905154842 32 53 4.8 4.8 0.00 0.00 0.00 74 1014.6
20260905154338 31 122 1.6 1.6 0.00 0.00 0.00 73 1014.5
20260905153833 31 105 1.6 1.6 0.00 0.00 0.00 77 1014.5
20260905153330 31 126 3.2 3.2 0.00 0.00 0.00 75 1014.6
20260905152829 31 67 0.0 1.6 0.00 0.00 0.00 75 1014.6
20260905152328 31 111 1.6 1.6 0.00 0.00 0.00 75 1014.7
20260905151824 32 78 0.0 1.6 0.00 0.00 0.00 75 1014.7
20260905151319 32 70 1.6 1.6 0.00 0.00 0.00 75 1014.7
20260905150813 31 108 1.6 1.6 0.00 0.00 0.00 76 1014.8
20260905150308 31 68 0.0 1.6 0.00 0.00 0.00 78 1014.7
20260905145805 31 74 1.6 1.6 0.00 0.00 0.00 77 1014.6
20260905145306 31 78 1.6 1.6 0.00 0.00 0.00 79 1014.7
20260905144804 30 84 0.0 0.0 0.00 0.00 0.00 80 1014.8
20260905144300 30 47 3.2 4.8 0.00 0.00 0.00 80 1014.8
20260905143758 30 113 1.6 3.2 0.00 0.00 0.00 80 1014.8
20260905143253 30 53 1.6 1.6 0.00 0.00 0.00 82 1014.6
20260905142751 29 84 0.0 1.6 0.00 0.00 0.00 85 1014.6
20260905142246 28 64 1.6 1.6 0.00 0.00 0.00 86 1015.0
20260905141742 28 61 1.6 1.6 0.00 0.00 0.00 86 1014.9
20260905141238 28 34 3.2 4.8 0.00 0.00 0.00 86 1014.7
20260905140733 28 52 1.6 3.2 0.00 0.00 0.00 85 1014.6
20260905140227 29 81 0.0 1.6 0.00 0.00 0.00 85 1014.7
20260905135726 29 80 0.0 1.6 0.00 0.00 0.00 85 1014.9
20260905135223 28 49 3.2 3.2 0.00 0.00 0.00 86 1014.9
20260905134722 28 85 1.6 1.6 0.00 0.00 0.00 87 1015.0
20260905134221 28 55 1.6 1.6 0.00 0.00 0.00 88 1015.0
20260905133716 28 50 0.0 1.6 0.00 0.00 0.00 90 1015.0
20260905133211 27 64 3.2 3.2 0.00 0.00 0.00 91 1015.0
20260905132710 27 64 1.6 3.2 0.00 0.00 0.00 92 1015.1
20260905132206 27 52 1.6 3.2 0.00 0.00 0.00 92 1014.9
20260905131701 27 55 3.2 3.2 0.00 0.00 0.00 92 1015.1
20260905131155 27 54 0.0 1.6 0.00 0.00 0.00 93 1014.8
20260905130650 27 81 0.0 1.6 0.00 0.00 0.00 94 1015.1
20260905130149 27 63 1.6 1.6 0.00 0.00 0.00 95 1015.0
20260905125638 26 79 0.0 1.6 0.00 0.00 0.00 96 1015.0
20260905125134 26 57 3.2 4.8 0.00 0.00 0.00 96 1015.0
20260905124631 26 73 0.0 0.0 0.00 0.00 0.00 98 1015.1
20260905124127 26 88 0.0 0.0 0.00 0.00 0.00 98 1015.1
20260905123622 26 61 1.6 3.2 0.00 0.00 0.00 99 1015.2
20260905123119 26 74 0.0 0.0 0.00 0.00 0.00 99 1015.1
20260905122618 26 72 0.0 0.0 0.00 0.00 0.00 99 1014.9
20260905122119 25 75 0.0 0.0 0.00 0.00 0.00 99 1014.9
20260905121613 25 73 0.0 0.0 0.00 0.00 0.00 99 1014.7
20260905121109 25 80 0.0 0.0 0.00 0.00 0.00 99 1014.7
20260905120608 25 81 0.0 0.0 0.00 0.00 0.00 99 1014.8
20260905115556 25 80 0.0 0.0 0.00 0.00 0.00 99 1014.8
20260905115051 25 81 0.0 0.0 0.00 0.00 0.00 99 1015.0
20260905114550 25 81 0.0 0.0 0.00 0.00 0.00 99 1014.9
20260905114049 24 81 0.0 0.0 0.00 0.00 0.00 99 1014.8
20260905113544 24 81 0.0 0.0 0.00 0.00 0.00 99 1014.7
20260905113040 24 81 0.0 0.0 0.00 0.00 0.00 99 1014.8
20260905112535 24 81 0.0 0.0 0.00 0.00 0.00 99 1014.6
20260905112030 24 81 0.0 0.0 0.00 0.00 0.00 99 1014.4
20260905111525 24 81 0.0 0.0 0.00 0.00 0.00 99 1014.6
20260905111024 23 81 0.0 0.0 0.00 0.00 0.00 99 1014.7
20260905110524 24 81 0.0 0.0 0.00 0.00 0.00 99 1014.5
20260905110019 24 81 0.0 0.0 0.00 0.00 0.00 99 1014.5
20260905105519 23 81 0.0 0.0 0.00 0.00 0.00 99 1014.4